When you browse on this site, cookies collect data to enhance your experience and personalize the content and advertising you see.
Visit our Privacy Policy to learn more. By continuing to use the site, you agree to this use of cookies and data.
  • en France
  • Liste des pays
  • À 7 jours
  • Température de l'eau
  • Carte météo
  • Widgets météo
  • user-avatar
    Se connecter

    Météo par heure à Fier

    Ce jour, 21 Février, Vendredi

    Heure Température Précipitation Vent Pression Humidité
    00:00 +6°C° 0 mm 4 m/s 763 mmHg 70%
    01:00 +5°C° 0 mm 4 m/s 764 mmHg 69%
    02:00 +5°C° 0 mm 4 m/s 764 mmHg 69%
    03:00 +5°C° 0 mm 4 m/s 764 mmHg 69%
    04:00 +4°C° 0 mm 4 m/s 764 mmHg 69%
    05:00 +4°C° 0 mm 3 m/s 764 mmHg 68%
    06:00 +4°C° 0 mm 3 m/s 765 mmHg 68%
    07:00 +4°C° 0 mm 3 m/s 765 mmHg 70%
    14:00 +12°C° 0 mm 4 m/s 764 mmHg 47%
    15:00 +12°C° 0 mm 4 m/s 764 mmHg 49%
    16:00 +11°C° 0 mm 4 m/s 764 mmHg 51%
    17:00 +10°C° 0 mm 4 m/s 765 mmHg 55%
    18:00 +9°C° 0 mm 3 m/s 765 mmHg 59%
    19:00 +8°C° 0 mm 3 m/s 765 mmHg 63%
    20:00 +7°C° 0 mm 2 m/s 766 mmHg 64%
    21:00 +7°C° 0 mm 2 m/s 766 mmHg 64%
    22:00 +7°C° 0 mm 2 m/s 766 mmHg 64%
    23:00 +7°C° 0 mm 2 m/s 766 mmHg 64%

    Demain, 22 Février, Samedi

    Heure Température Précipitation Vent Pression Humidité
    00:00 +7°C° 0 mm 2 m/s 766 mmHg 65%
    01:00 +6°C° 0 mm 2 m/s 766 mmHg 65%
    02:00 +6°C° 0 mm 2 m/s 766 mmHg 66%
    03:00 +5°C° 0 mm 3 m/s 766 mmHg 67%
    04:00 +5°C° 0 mm 3 m/s 766 mmHg 68%
    05:00 +4°C° 0 mm 3 m/s 767 mmHg 67%
    06:00 +4°C° 0 mm 3 m/s 767 mmHg 67%
    07:00 +4°C° 0 mm 4 m/s 767 mmHg 67%
    08:00 +6°C° 0 mm 4 m/s 768 mmHg 59%
    09:00 +8°C° 0 mm 4 m/s 768 mmHg 50%
    10:00 +9°C° 0 mm 5 m/s 768 mmHg 42%
    11:00 +10°C° 0 mm 5 m/s 769 mmHg 40%
    12:00 +12°C° 0 mm 5 m/s 769 mmHg 37%
    13:00 +13°C° 0 mm 5 m/s 769 mmHg 35%
    14:00 +13°C° 0 mm 5 m/s 769 mmHg 38%
    15:00 +12°C° 0 mm 4 m/s 769 mmHg 41%
    16:00 +12°C° 0 mm 4 m/s 769 mmHg 44%
    17:00 +11°C° 0 mm 4 m/s 769 mmHg 48%
    18:00 +10°C° 0 mm 4 m/s 770 mmHg 52%
    19:00 +7°C° 0 mm 4 m/s 770 mmHg 56%
    20:00 +8°C° 0 mm 3 m/s 770 mmHg 57%
    21:00 +8°C° 0 mm 3 m/s 771 mmHg 58%
    22:00 +7°C° 0 mm 3 m/s 771 mmHg 59%
    23:00 +7°C° 0 mm 3 m/s 771 mmHg 59%

    Après-demain, 23 Février, Dimanche

    Heure Température Précipitation Vent Pression Humidité
    00:00 +7°C° 0 mm 2 m/s 771 mmHg 59%
    01:00 +6°C° 0 mm 2 m/s 771 mmHg 59%
    02:00 +6°C° 0 mm 2 m/s 770 mmHg 59%
    03:00 +6°C° 0 mm 2 m/s 770 mmHg 58%
    04:00 +7°C° 0 mm 1 m/s 769 mmHg 57%
    05:00 +6°C° 0 mm 2 m/s 769 mmHg 57%
    06:00 +6°C° 0 mm 2 m/s 769 mmHg 57%
    07:00 +6°C° 0 mm 2 m/s 769 mmHg 57%
    08:00 +8°C° 0 mm 2 m/s 769 mmHg 52%
    09:00 +11°C° 0 mm 1 m/s 769 mmHg 47%
    10:00 +13°C° 0 mm 1 m/s 769 mmHg 42%
    11:00 +13°C° 0 mm 1 m/s 769 mmHg 41%
    12:00 +14°C° 0 mm 2 m/s 768 mmHg 41%
    13:00 +15°C° 0 mm 2 m/s 768 mmHg 40%
    14:00 +14°C° 0 mm 2 m/s 767 mmHg 43%
    15:00 +14°C° 0 mm 2 m/s 767 mmHg 47%
    16:00 +14°C° 0 mm 1 m/s 767 mmHg 50%
    17:00 +12°C° 0 mm 1 m/s 767 mmHg 54%
    18:00 +11°C° 0 mm 1 m/s 767 mmHg 57%
    19:00 +10°C° 0 mm 1 m/s 767 mmHg 61%
    20:00 +10°C° 0 mm 1 m/s 767 mmHg 60%
    21:00 +10°C° 0 mm 1 m/s 767 mmHg 60%
    22:00 +10°C° 0 mm 1 m/s 767 mmHg 60%
    23:00 +9°C° 0 mm 1 m/s 767 mmHg 60%

    24 Février, Lundi

    Heure Température Précipitation Vent Pression Humidité
    00:00 +9°C° 0 mm 1 m/s 767 mmHg 59%
    01:00 +9°C° 0 mm 1 m/s 767 mmHg 58%
    02:00 +9°C° 0 mm 1 m/s 766 mmHg 58%
    03:00 +9°C° 0 mm 1 m/s 765 mmHg 58%
    04:00 +9°C° 0 mm 1 m/s 765 mmHg 57%
    05:00 +9°C° 0 mm 1 m/s 765 mmHg 58%
    06:00 +9°C° 0 mm 1 m/s 765 mmHg 59%
    07:00 +9°C° 0 mm 1 m/s 765 mmHg 59%
    08:00 +11°C° 0 mm 1 m/s 764 mmHg 57%
    09:00 +13°C° 0 mm 1 m/s 764 mmHg 55%
    10:00 +14°C° 0 mm 1 m/s 764 mmHg 52%
    11:00 +15°C° 0 mm 2 m/s 764 mmHg 54%
    12:00 +15°C° 0 mm 2 m/s 763 mmHg 56%
    13:00 +16°C° 0 mm 3 m/s 763 mmHg 58%
    14:00 +16°C° 0 mm 3 m/s 763 mmHg 62%
    15:00 +14°C° 0 mm 3 m/s 763 mmHg 65%
    16:00 +14°C° 0 mm 3 m/s 763 mmHg 68%
    17:00 +13°C° 0 mm 3 m/s 763 mmHg 73%
    18:00 +12°C° 0 mm 3 m/s 764 mmHg 78%
    19:00 +11°C° 0 mm 3 m/s 764 mmHg 82%
    20:00 +11°C° 0 mm 3 m/s 764 mmHg 83%
    21:00 +10°C° 0 mm 3 m/s 764 mmHg 83%
    22:00 +10°C° 0 mm 2 m/s 765 mmHg 84%
    23:00 +10°C° 0 mm 2 m/s 765 mmHg 83%

    25 Février, Mardi

    Heure Température Précipitation Vent Pression Humidité
    00:00 +10°C° 0 mm 2 m/s 765 mmHg 82%
    01:00 +10°C° 0 mm 2 m/s 765 mmHg 81%
    02:00 +10°C° 0 mm 2 m/s 764 mmHg 79%
    03:00 +10°C° 0 mm 2 m/s 764 mmHg 77%
    04:00 +11°C° 0 mm 1 m/s 764 mmHg 75%
    05:00 +10°C° 0 mm 2 m/s 764 mmHg 73%
    06:00 +10°C° 0 mm 2 m/s 764 mmHg 70%
    07:00 +10°C° 0 mm 2 m/s 763 mmHg 68%
    08:00 +13°C° 0 mm 3 m/s 763 mmHg 64%
    09:00 +16°C° 0 mm 3 m/s 763 mmHg 61%
    10:00 +18°C° 0 mm 4 m/s 763 mmHg 57%
    11:00 +17°C° 0 mm 5 m/s 763 mmHg 57%
    12:00 +19°C° 0 mm 5 m/s 762 mmHg 56%
    13:00 +19°C° 0 mm 6 m/s 762 mmHg 56%
    14:00 +19°C° 0 mm 6 m/s 762 mmHg 59%
    15:00 +17°C° 0 mm 6 m/s 761 mmHg 62%
    16:00 +17°C° 0 mm 7 m/s 761 mmHg 65%
    17:00 +15°C° 0 mm 6 m/s 761 mmHg 70%
    18:00 +14°C° 0 mm 6 m/s 761 mmHg 75%
    19:00 +13°C° 0 mm 6 m/s 761 mmHg 80%
    20:00 +11°C° 0 mm 6 m/s 761 mmHg 81%
    21:00 +11°C° 0 mm 6 m/s 761 mmHg 82%
    22:00 +12°C° 0 mm 5 m/s 760 mmHg 83%
    23:00 +12°C° 0 mm 5 m/s 760 mmHg 84%

    26 Février, Mercredi

    Heure Température Précipitation Vent Pression Humidité
    00:00 +10°C° 0 mm 5 m/s 759 mmHg 85%
    01:00 +10°C° 0 mm 5 m/s 759 mmHg 86%
    02:00 +10°C° 0 mm 5 m/s 758 mmHg 86%
    03:00 +10°C° 0 mm 5 m/s 758 mmHg 86%
    04:00 +9°C° 0 mm 5 m/s 757 mmHg 86%
    05:00 +10°C° 0 mm 5 m/s 757 mmHg 85%
    06:00 +10°C° 0 mm 5 m/s 757 mmHg 84%
    07:00 +10°C° 0 mm 5 m/s 757 mmHg 83%
    08:00 +13°C° 0 mm 5 m/s 757 mmHg 78%
    09:00 +14°C° 0 mm 6 m/s 757 mmHg 72%
    10:00 +16°C° 0 mm 7 m/s 756 mmHg 67%
    11:00 +16°C° 0 mm 7 m/s 756 mmHg 64%
    12:00 +17°C° 0 mm 8 m/s 755 mmHg 62%
    13:00 +17°C° 0 mm 8 m/s 755 mmHg 60%
    14:00 +17°C° 0 mm 8 m/s 754 mmHg 62%
    15:00 +16°C° 0 mm 8 m/s 754 mmHg 64%
    16:00 +16°C° 0 mm 8 m/s 753 mmHg 65%
    17:00 +15°C° 0 mm 7 m/s 753 mmHg 70%
    18:00 +14°C° 0 mm 7 m/s 753 mmHg 74%
    19:00 +13°C° 0 mm 6 m/s 753 mmHg 79%
    20:00 +11°C° 0 mm 6 m/s 753 mmHg 79%
    21:00 +12°C° 0 mm 5 m/s 753 mmHg 80%
    22:00 +12°C° 0 mm 5 m/s 753 mmHg 80%
    23:00 +12°C° 0.1 mm 5 m/s 753 mmHg 81%
    Voir plus